Weather History for Trinidad, CO

Change the Weather History Date:

Thursday, January 16, 2014

  Actual Average Record
Temperature  
Mean Temperature 32 °F 32 °F  
Max Temperature 47 °F 47 °F 71 °F (2000)
Min Temperature 17 °F 18 °F -5 °F (1987)
Degree Days  
Heating Degree Days 33 33  
Month to date heating degree days 533 528  
Since 1 July heating degree days 2712 2796  
Cooling Degree Days 0 0  
Month to date cooling degree days 0 0  
Year to date cooling degree days 0 0  
Moisture  
Dew Point 11 °F    
Average Humidity 46    
Maximum Humidity 67    
Minimum Humidity 25    
Precipitation  
Precipitation 0.00 in 0.01 in 0.21 in (1960)
Month to date precipitation T 0.20  
Year to date precipitation T 0.20  
Sea Level Pressure  
Sea Level Pressure 30.21 in    
Wind  
Wind Speed 7 mph (WNW)    
Max Wind Speed 15 mph    
Max Gust Speed 19 mph    
Visibility 10 miles    
Events      
T = Trace of Precipitation, MM = Missing Value Source: NWS Daily Summary

Daily Weather History Graph

Daily Weather History Graph

Search for Another Location

Airport:

Trip Planner

Search our weather history database for the weather conditions in past years. The results will help you decide how hot, cold, wet, or windy it might be!

Date:

Astronomy

Jan. 16, 2014 Rise Set
Actual Time 7:09 AM MST 5:04 PM MST
Civil Twilight 6:41 AM MST 5:33 PM MST
Nautical Twilight 6:09 AM MST 6:05 PM MST
Astronomical Twilight 5:38 AM MST 6:36 PM MST
Moon 5:56 PM MST (1/16) 7:06 AM MST (1/16)
Length of Visible Light 10h 51m
Length of Day
9h 54m
Full, 100% of the Moon is Illuminated
Jan 16
Full
Jan 23
Last Quarter
Jan 30
New
Feb 6
First Quarter
Feb 14
Full

Hourly Weather History & Observations

Time (MST) Temp. Windchill Dew Point Humidity Pressure Visibility Wind Dir Wind Speed Gust Speed Precip Events Conditions
12:54 AM 26.1 °F 17.6 °F 9.0 °F 49% 30.06 in 10.0 mi WSW 8.1 mph - N/A   Clear
1:54 AM 26.1 °F 18.4 °F 8.1 °F 47% 30.06 in 10.0 mi Variable 6.9 mph - N/A   Clear
2:54 AM 27.0 °F 16.7 °F 8.1 °F 45% 30.07 in 10.0 mi West 11.5 mph - N/A   Clear
3:54 AM 26.1 °F 16.8 °F 8.1 °F 47% 30.09 in 10.0 mi West 9.2 mph - N/A   Clear
4:54 AM 26.1 °F 16.8 °F 8.1 °F 47% 30.10 in 10.0 mi West 9.2 mph - N/A   Clear
5:54 AM 25.0 °F 14.2 °F 8.1 °F 49% 30.14 in 10.0 mi WSW 11.5 mph - N/A   Clear
6:54 AM 21.9 °F 10.4 °F 8.1 °F 55% 30.22 in 10.0 mi WNW 11.5 mph - N/A   Clear
7:54 AM 24.1 °F 18.2 °F 8.1 °F 51% 30.23 in 10.0 mi West 4.6 mph - N/A   Clear
8:54 AM 36.0 °F - 10.0 °F 34% 30.25 in 10.0 mi Calm Calm - N/A   Clear
9:54 AM 37.0 °F 31.6 °F 12.0 °F 36% 30.27 in 10.0 mi ENE 6.9 mph - N/A   Clear
10:54 AM 39.0 °F - 12.0 °F 33% 30.24 in 10.0 mi Calm Calm - N/A   Clear
11:54 AM 42.1 °F - 10.0 °F 27% 30.16 in 10.0 mi Calm Calm - N/A   Clear
12:54 PM 44.1 °F - 10.9 °F 26% 30.15 in 10.0 mi Calm Calm - N/A   Clear
1:54 PM 46.0 °F 42.5 °F 12.0 °F 25% 30.14 in 10.0 mi ENE 6.9 mph - N/A   Clear
2:54 PM 46.0 °F 41.4 °F 12.0 °F 25% 30.12 in 10.0 mi East 9.2 mph - N/A   Clear
3:54 PM 46.0 °F 41.4 °F 12.0 °F 25% 30.15 in 10.0 mi ENE 9.2 mph - N/A   Clear
4:54 PM 39.9 °F 32.9 °F 14.0 °F 35% 30.20 in 10.0 mi ENE 11.5 mph - N/A   Clear
5:54 PM 34.0 °F 25.5 °F 15.1 °F 46% 30.27 in 10.0 mi ENE 11.5 mph - N/A   Clear
6:54 PM 28.9 °F 22.8 °F 14.0 °F 54% 30.34 in 10.0 mi South 5.8 mph - N/A   Clear
7:54 PM 27.0 °F 21.6 °F 12.9 °F 56% 30.36 in 10.0 mi West 4.6 mph - N/A   Clear
8:54 PM 21.9 °F 13.4 °F 10.0 °F 60% 30.36 in 10.0 mi West 6.9 mph - N/A   Clear
9:54 PM 19.0 °F 8.2 °F 9.0 °F 65% 30.38 in 10.0 mi NW 9.2 mph - N/A   Clear
10:54 PM 18.0 °F 7.7 °F 9.0 °F 68% 30.35 in 10.0 mi West 8.1 mph - N/A   Clear
11:54 PM 23.0 °F 11.1 °F 12.9 °F 65% 30.31 in 10.0 mi WSW 12.7 mph - N/A   Clear